Weather reports worldwide

Advertisment
Ile Rousse, France (7753): temperature & dewpoint: 11.10.2018 06:00:00 - 17.10.2018 06:00:00 (CEST)Ile Rousse, France (7753): wind speed & gusts: 11.10.2018 06:00:00 - 17.10.2018 06:00:00 (CEST)Ile Rousse, France (7753): wind direction: 11.10.2018 06:00:00 - 17.10.2018 06:00:00 (CEST)Ile Rousse, France (7753): reduced air pressure: 11.10.2018 06:00:00 - 17.10.2018 06:00:00 (CEST)Ile Rousse, France (7753): visibility: 11.10.2018 06:00:00 - 17.10.2018 06:00:00 (CEST)Ile Rousse, France (7753): precipitation: 11.10.2018 06:00:00 - 17.10.2018 06:00:00 (CEST)
Date & Time tt [°C] td [°C] ff [km/h] ff [kn] fx [km/h] fx [kn] dd ppp [hPa] vv [km] rr [mm]
17.10.2018 06:00:00 17,4 14,5 11 6 19 10 E 1014,0 - 0,0
17.10.2018 05:00:00 17,4 14,7 9 5 21 11 ENE 1014,1 - 0,0
17.10.2018 04:00:00 17,0 14,1 15 8 19 10 ENE 1014,6 - 0,0
17.10.2018 03:00:00 18,0 15,6 5 3 16 8 N 1015,2 - 0,0
17.10.2018 02:00:00 17,9 16,4 7 4 9 5 W 1015,4 - 0,0
17.10.2018 01:00:00 18,1 15,7 2 1 12 6 WSW 1015,3 - 0,0
17.10.2018 00:00:00 18,1 15,9 5 3 9 5 ENE 1015,7 - 0,0
16.10.2018 23:00:00 18,2 15,8 3 1 22 12 NE 1016,1 - 0,0
16.10.2018 22:00:00 18,3 15,9 13 7 24 13 E 1016,3 - 0,0
16.10.2018 21:00:00 18,7 17,0 20 11 43 23 E 1015,8 - 0,0
16.10.2018 20:00:00 18,7 16,7 37 20 56 30 NE 1015,5 20 0,0
16.10.2018 19:00:00 18,4 16,6 38 20 51 28 ENE 1015,0 - 0,0
16.10.2018 18:00:00 19,0 17,1 33 18 49 26 ENE 1015,1 - 0,0
16.10.2018 17:00:00 18,5 17,3 24 13 49 27 ENE 1015,2 - 0,4
16.10.2018 16:00:00 18,0 16,8 39 21 52 28 NE 1015,7 - 1,8
16.10.2018 15:00:00 18,1 17,3 38 20 51 28 NE 1015,8 - 0,0
16.10.2018 14:00:00 18,6 17,6 31 17 42 23 NE 1015,5 15 0,0
16.10.2018 13:00:00 18,3 17,1 16 9 42 23 ENE 1016,3 - 0,6
16.10.2018 12:00:00 18,2 16,5 35 19 50 27 NE 1015,8 - 0,0
16.10.2018 11:00:00 17,9 16,8 30 16 46 25 ENE 1015,6 - 0,4
16.10.2018 10:00:00 17,0 15,5 18 10 24 13 ENE 1015,7 - 0,2
16.10.2018 09:00:00 16,8 15,1 10 6 13 7 E 1015,9 - 2,6
16.10.2018 08:00:00 17,5 14,0 10 5 13 7 E 1015,6 10 3,0
16.10.2018 07:00:00 19,2 13,6 5 3 19 10 NW 1014,9 - 0,0
16.10.2018 06:00:00 19,1 12,1 8 4 18 10 SW 1014,4 - 0,0
16.10.2018 05:00:00 19,1 12,4 15 8 22 12 E 1014,1 - 0,0
16.10.2018 04:00:00 19,3 11,6 13 7 21 12 E 1014,3 - 0,0
16.10.2018 03:00:00 19,6 13,1 18 10 24 13 E 1014,8 - 0,0
16.10.2018 02:00:00 19,8 11,6 7 4 22 12 ESE 1015,2 - 0,0
16.10.2018 01:00:00 20,1 11,8 4 2 15 8 ESE 1015,2 - 0,0
16.10.2018 00:00:00 20,2 13,4 8 4 18 10 NW 1015,3 - 0,0
15.10.2018 23:00:00 20,6 11,0 8 5 20 11 SSW 1015,1 - 0,0
15.10.2018 22:00:00 20,8 12,5 10 5 18 10 ESE 1014,9 - 0,0
15.10.2018 21:00:00 20,3 14,6 5 3 13 7 W 1014,5 - 0,0
15.10.2018 20:00:00 20,2 11,4 8 4 13 7 E 1014,4 18 0,0
15.10.2018 19:00:00 20,7 13,9 5 3 13 7 W 1013,9 - 0,0
15.10.2018 18:00:00 21,8 14,9 5 3 10 6 NNE 1013,3 18 0,0
15.10.2018 17:00:00 22,8 12,7 6 3 15 8 WSW 1012,8 - 0,0
15.10.2018 16:00:00 22,2 12,4 8 4 13 7 WSW 1012,5 - 0,0
15.10.2018 15:00:00 22,2 12,2 6 4 21 11 NNE 1012,7 - 0,0
15.10.2018 14:00:00 22,9 14,5 15 8 22 12 W 1013,4 20 0,0
15.10.2018 13:00:00 22,5 15,6 14 7 23 12 W 1013,5 - 0,0
15.10.2018 12:00:00 23,0 12,0 11 6 31 17 WSW 1013,6 - 0,0
15.10.2018 11:00:00 22,3 10,4 6 3 52 28 SW 1013,4 - 0,0
15.10.2018 10:00:00 21,2 10,1 28 15 46 25 E 1012,7 - 0,0
15.10.2018 09:00:00 19,9 8,6 10 5 25 13 SE 1013,1 - 0,0
15.10.2018 08:00:00 18,5 8,2 20 11 28 15 E 1013,0 - 0,0
15.10.2018 07:00:00 18,8 9,3 10 5 14 7 E 1013,2 - 0,0
15.10.2018 06:00:00 18,8 10,1 3 2 32 18 SSE 1013,0 - 0,0
15.10.2018 05:00:00 19,4 7,8 15 8 31 17 ESE 1012,8 - 0,0
15.10.2018 04:00:00 19,0 7,7 16 9 28 15 SSE 1013,2 - 0,0
15.10.2018 03:00:00 19,8 7,5 13 7 31 17 SSE 1013,9 - 0,0
15.10.2018 02:00:00 19,1 12,1 3 1 10 5 WNW 1014,4 - 0,0
15.10.2018 01:00:00 19,2 11,5 5 3 9 5 SW 1014,5 - 0,0
15.10.2018 00:00:00 20,2 8,5 5 3 10 5 SE 1014,7 - 0,0
14.10.2018 23:00:00 20,1 9,9 5 3 9 5 ESE 1014,9 - 0,0
14.10.2018 22:00:00 20,2 12,2 5 3 11 6 NE 1014,8 - 0,0
14.10.2018 21:00:00 20,2 11,9 4 2 12 6 WNW 1014,5 - 0,0
14.10.2018 20:00:00 19,7 13,6 10 5 18 10 SW 1014,3 - 0,0
14.10.2018 19:00:00 20,7 13,6 8 4 11 6 ENE 1014,2 - 0,0
14.10.2018 18:00:00 22,3 14,4 5 3 17 9 W 1014,3 - 0,0
14.10.2018 17:00:00 23,5 11,9 11 6 24 13 SW 1014,5 - 0,0
14.10.2018 16:00:00 22,2 14,8 14 8 23 12 W 1014,8 - 0,0
14.10.2018 15:00:00 22,3 14,7 14 7 21 11 W 1015,1 - 0,0
14.10.2018 14:00:00 22,4 15,5 14 7 23 12 W 1015,8 18 0,0
14.10.2018 13:00:00 21,4 15,0 16 8 22 12 W 1016,6 - 0,0
14.10.2018 12:00:00 21,1 15,9 6 3 11 6 WNW 1016,7 - 0,0
14.10.2018 11:00:00 19,8 15,4 5 3 9 5 W 1017,0 18 0,0
14.10.2018 10:00:00 19,1 15,2 2 1 6 3 E 1017,0 - 0,0
14.10.2018 09:00:00 18,5 14,8 0 0 6 4 N 1017,2 - 0,0
14.10.2018 08:00:00 18,5 14,2 4 2 10 6 W 1017,1 18 0,0
14.10.2018 07:00:00 18,2 14,9 7 4 11 6 WSW 1017,3 - 0,0
14.10.2018 06:00:00 18,7 15,0 8 4 10 5 W 1017,6 - 0,0
14.10.2018 05:00:00 18,9 13,5 4 2 8 4 W 1017,7 18 0,0
14.10.2018 04:00:00 19,3 14,5 7 4 10 5 SE 1018,0 - 0,0
14.10.2018 03:00:00 18,7 14,6 10 5 12 6 E 1018,5 - 0,0
14.10.2018 02:00:00 19,1 14,1 5 3 7 4 ESE 1018,9 - 0,0
14.10.2018 01:00:00 18,8 14,1 6 3 7 4 E 1019,1 - 0,0
14.10.2018 00:00:00 19,6 14,6 2 1 8 4 ENE 1019,3 - 0,0
13.10.2018 23:00:00 19,8 14,2 5 3 7 4 NE 1019,5 - 0,0
13.10.2018 22:00:00 20,5 14,2 5 3 10 5 WSW 1019,2 - 0,0
13.10.2018 21:00:00 20,4 13,8 5 3 8 4 W 1019,1 - 0,0
13.10.2018 20:00:00 20,8 14,2 3 2 6 3 ENE 1019,3 18 0,0
13.10.2018 19:00:00 21,3 14,0 4 2 7 4 SW 1019,3 - 0,0
13.10.2018 18:00:00 22,5 14,6 5 3 10 5 SW 1019,1 - 0,0
13.10.2018 17:00:00 22,8 13,3 7 4 17 9 W 1019,7 18 0,0
13.10.2018 16:00:00 23,4 15,4 8 5 18 10 W 1019,9 - 0,0
13.10.2018 15:00:00 22,6 15,4 8 4 16 9 NW 1020,4 - 0,0
13.10.2018 14:00:00 22,1 15,9 8 4 16 9 N 1020,9 18 0,0
13.10.2018 13:00:00 21,1 15,6 11 6 18 10 NE 1021,6 - 0,0
13.10.2018 12:00:00 21,4 15,7 13 7 16 9 NNE 1022,0 - 0,0
13.10.2018 11:00:00 20,7 15,7 9 5 13 7 NNE 1021,9 18 0,0
13.10.2018 10:00:00 20,2 15,8 6 4 13 7 ENE 1022,1 - 0,0
13.10.2018 09:00:00 19,3 15,2 10 5 16 9 SSE 1022,2 - 0,0
13.10.2018 08:00:00 18,7 16,7 6 3 8 4 S 1022,2 - 0,0
13.10.2018 07:00:00 18,7 15,8 7 4 9 5 WSW 1021,9 - 0,0
13.10.2018 06:00:00 18,9 15,9 5 3 9 5 WNW 1022,2 - 0,0
13.10.2018 05:00:00 18,8 15,8 5 3 8 5 WSW 1022,2 - 0,0
13.10.2018 04:00:00 19,0 16,4 6 4 13 7 SW 1022,5 - 0,0
13.10.2018 03:00:00 19,1 16,5 8 5 18 10 SW 1022,9 - 0,0
13.10.2018 02:00:00 19,0 15,5 13 7 18 10 WSW 1022,8 - 0,0
13.10.2018 01:00:00 18,5 15,9 10 5 13 7 WSW 1023,0 - 0,0
13.10.2018 00:00:00 19,0 15,9 6 3 11 6 WNW 1023,3 - 0,0
12.10.2018 23:00:00 19,2 16,4 2 1 8 4 WSW 1023,4 - 0,0
12.10.2018 22:00:00 19,9 15,3 5 3 14 8 E 1023,2 - 0,0
12.10.2018 21:00:00 19,3 16,1 7 4 18 10 ESE 1023,4 - 0,0
12.10.2018 20:00:00 19,5 16,9 12 7 25 14 E 1023,4 15 0,0
12.10.2018 19:00:00 20,0 16,6 21 11 29 15 NE 1023,1 - 0,0
12.10.2018 18:00:00 20,9 16,3 17 9 32 17 NNE 1022,9 - 0,0
12.10.2018 17:00:00 21,5 16,9 17 9 24 13 NNE 1022,6 25 0,0
12.10.2018 16:00:00 23,0 17,0 10 5 33 18 NNE 1022,4 - 0,0
12.10.2018 15:00:00 22,3 15,2 27 14 46 25 NNE 1021,8 - 0,0
12.10.2018 14:00:00 21,6 17,0 34 18 46 25 NNE 1022,2 30 0,0
12.10.2018 13:00:00 21,4 16,6 36 20 48 26 NNE 1022,5 - 0,0
12.10.2018 12:00:00 21,5 16,0 35 19 45 24 NE 1023,3 - 0,0
12.10.2018 11:00:00 21,3 15,8 13 7 21 12 NE 1023,3 35 0,0
12.10.2018 10:00:00 20,6 17,0 10 6 21 12 E 1023,1 - 0,0
12.10.2018 09:00:00 18,7 16,7 13 7 21 12 WSW 1022,4 - 0,0
12.10.2018 08:00:00 18,6 16,6 10 6 21 11 W 1021,3 20 0,0
12.10.2018 07:00:00 18,1 15,4 11 6 15 8 W 1020,5 - 0,0
12.10.2018 06:00:00 18,6 15,7 6 3 13 7 SSW 1020,3 - 0,0
12.10.2018 05:00:00 18,8 15,5 6 3 12 6 WSW 1020,1 20 0,0
12.10.2018 04:00:00 19,5 15,8 8 4 13 7 W 1019,8 - 0,0
12.10.2018 03:00:00 19,6 15,5 7 4 17 9 ENE 1019,9 - 0,0
12.10.2018 02:00:00 20,1 15,5 7 4 18 10 WSW 1019,5 - 0,0
12.10.2018 01:00:00 19,2 16,1 13 7 18 10 WSW 1019,3 - 0,0
12.10.2018 00:00:00 20,2 16,0 4 2 10 5 SW 1019,0 - 0,0
11.10.2018 23:00:00 20,2 15,8 5 3 8 5 SSE 1018,9 - 0,0
11.10.2018 22:00:00 19,9 16,7 4 2 9 5 E 1018,7 - 0,0
11.10.2018 21:00:00 20,1 17,5 8 5 10 5 SW 1018,3 - 0,0
11.10.2018 20:00:00 20,4 17,0 7 4 9 5 W 1017,6 25 0,0
11.10.2018 19:00:00 21,1 16,9 3 2 8 4 WSW 1016,9 - 0,0
11.10.2018 18:00:00 23,1 17,6 2 1 8 4 SW 1016,3 - 0,0
11.10.2018 17:00:00 21,9 16,6 2 1 14 7 E 1016,2 - 0,0
11.10.2018 16:00:00 22,1 16,8 8 5 21 11 NW 1015,9 - 0,0
11.10.2018 15:00:00 21,9 17,1 13 7 19 10 W 1015,9 - 0,0
11.10.2018 14:00:00 22,3 16,8 10 5 17 9 W 1016,0 20 0,0
11.10.2018 13:00:00 22,6 16,4 8 4 16 9 W 1016,2 - 0,0
11.10.2018 12:00:00 22,2 16,0 5 3 16 8 WNW 1016,2 - 0,0
11.10.2018 11:00:00 20,6 17,2 6 3 14 7 WSW 1016,3 25 0,0
11.10.2018 10:00:00 20,3 17,3 9 5 17 9 NNE 1016,1 - 0,0
11.10.2018 09:00:00 19,4 17,0 3 2 42 23 SSE 1016,3 - 0,0
11.10.2018 08:00:00 19,8 17,9 35 19 54 29 WNW 1015,1 16 0,2
11.10.2018 07:00:00 21,7 13,1 17 9 23 12 SE 1014,0 - 0,0
11.10.2018 06:00:00 22,6 12,5 12 7 25 13 SSE 1013,5 - 0,0

tt = temperature
td = dewpoint
ff = wind speed
fx = gusts
dd = wind direction
ppp = reduced air pressure
vv = visibility
rr = precipitation

Next stations